Time,TemperatureF,DewpointF,PressureIn,WindDirection,WindDirectionDegrees,WindSpeedMPH,WindSpeedGustMPH,Humidity,HourlyPrecipIn,Conditions,Clouds,dailyrainin,SolarRadiationWatts/m^2,SoftwareType,DateUTC
2013-06-06 00:03:00,61.0,50.0,-100.00,SSE,154,8.0,13.0,68,0.00,,,0.00,0.000000,,2013-06-06 04:03:00,
2013-06-06 00:33:00,61.0,51.0,-100.00,SSE,157,7.0,12.0,70,0.00,,,0.00,0.000000,,2013-06-06 04:33:00,
2013-06-06 00:42:00,61.0,51.0,-100.00,SSE,157,7.0,12.0,70,0.00,,,0.00,0.000000,,2013-06-06 04:42:00,
2013-06-06 00:53:00,61.0,51.0,-100.00,SSE,157,7.0,12.0,70,0.00,,,0.00,0.000000,,2013-06-06 04:53:00,
2013-06-06 01:02:00,61.0,51.0,-100.00,SSE,157,7.0,12.0,70,0.00,,,0.00,0.000000,,2013-06-06 05:02:00,
2013-06-06 01:32:00,61.0,52.0,-100.00,SSE,167,8.0,14.0,72,0.00,,,0.00,0.000000,,2013-06-06 05:32:00,
2013-06-06 01:42:00,61.0,52.0,-100.00,SSE,167,8.0,14.0,72,0.00,,,0.00,0.000000,,2013-06-06 05:42:00,
2013-06-06 01:52:00,61.0,52.0,-100.00,SSE,167,8.0,14.0,72,0.00,,,0.00,0.000000,,2013-06-06 05:52:00,
2013-06-06 02:02:00,61.0,52.0,-100.00,SSE,167,8.0,14.0,72,0.00,,,0.00,0.000000,,2013-06-06 06:02:00,
2013-06-06 02:33:00,61.0,52.0,-100.00,SSE,167,9.0,14.0,73,0.00,,,0.00,0.000000,,2013-06-06 06:33:00,
2013-06-06 02:42:00,61.0,52.0,-100.00,SSE,167,9.0,14.0,73,0.00,,,0.00,0.000000,,2013-06-06 06:42:00,
2013-06-06 02:52:00,61.0,52.0,-100.00,SSE,167,9.0,14.0,73,0.00,,,0.00,0.000000,,2013-06-06 06:52:00,
2013-06-06 03:02:00,61.0,52.0,-100.00,SSE,167,9.0,14.0,73,0.00,,,0.00,0.000000,,2013-06-06 07:02:00,
2013-06-06 03:33:00,60.0,52.0,-100.00,SSE,161,7.0,13.0,75,0.00,,,0.00,0.000000,,2013-06-06 07:33:00,
2013-06-06 03:42:00,60.0,52.0,-100.00,SSE,161,7.0,13.0,75,0.00,,,0.00,0.000000,,2013-06-06 07:42:00,
2013-06-06 03:52:00,60.0,52.0,-100.00,SSE,161,7.0,13.0,75,0.00,,,0.00,0.000000,,2013-06-06 07:52:00,
2013-06-06 04:02:00,60.0,52.0,-100.00,SSE,161,7.0,13.0,75,0.00,,,0.00,0.000000,,2013-06-06 08:02:00,
2013-06-06 04:32:00,59.0,52.0,-100.00,SSE,153,6.0,11.0,78,0.00,,,0.00,0.000000,,2013-06-06 08:32:00,
2013-06-06 04:42:00,59.0,52.0,-100.00,SSE,153,6.0,11.0,78,0.00,,,0.00,0.000000,,2013-06-06 08:42:00,
2013-06-06 04:52:00,59.0,52.0,-100.00,SSE,153,6.0,11.0,78,0.00,,,0.00,0.000000,,2013-06-06 08:52:00,
2013-06-06 05:02:00,59.0,52.0,-100.00,SSE,153,6.0,11.0,78,0.00,,,0.00,0.000000,,2013-06-06 09:02:00,
2013-06-06 05:33:00,59.0,52.0,-100.00,SSE,163,6.0,14.0,79,0.00,,,0.00,0.000000,,2013-06-06 09:33:00,
2013-06-06 05:43:00,59.0,52.0,-100.00,SSE,163,6.0,14.0,79,0.00,,,0.00,0.000000,,2013-06-06 09:43:00,
2013-06-06 05:53:00,59.0,52.0,-100.00,SSE,163,6.0,14.0,79,0.00,,,0.00,0.000000,,2013-06-06 09:53:00,
2013-06-06 06:03:00,59.0,52.0,-100.00,SSE,163,6.0,14.0,79,0.00,,,0.00,0.000000,,2013-06-06 10:03:00,
2013-06-06 06:33:00,59.0,53.0,-100.00,SSE,168,7.0,11.0,80,0.00,,,0.00,1.000000,,2013-06-06 10:33:00,
2013-06-06 06:42:00,59.0,53.0,-100.00,SSE,168,7.0,11.0,80,0.00,,,0.00,1.000000,,2013-06-06 10:42:00,
2013-06-06 06:53:00,59.0,53.0,-100.00,SSE,168,7.0,11.0,80,0.00,,,0.00,1.000000,,2013-06-06 10:53:00,
2013-06-06 07:02:00,59.0,53.0,-100.00,SSE,168,7.0,11.0,80,0.00,,,0.00,1.000000,,2013-06-06 11:02:00,
2013-06-06 07:32:00,57.0,55.0,-100.00,SSE,160,6.0,12.0,93,0.05,,,0.05,10.000000,,2013-06-06 11:32:00,
2013-06-06 07:42:00,57.0,55.0,-100.00,SSE,160,6.0,12.0,93,0.05,,,0.05,10.000000,,2013-06-06 11:42:00,
2013-06-06 07:52:00,57.0,55.0,-100.00,SSE,160,6.0,12.0,93,0.05,,,0.05,10.000000,,2013-06-06 11:52:00,
2013-06-06 08:03:00,57.0,55.0,-100.00,SSE,160,6.0,12.0,93,0.05,,,0.05,10.000000,,2013-06-06 12:03:00,
2013-06-06 08:33:00,56.0,55.0,-100.00,SSE,158,7.0,14.0,95,0.03,,,0.08,30.000000,,2013-06-06 12:33:00,
2013-06-06 08:43:00,56.0,55.0,-100.00,SSE,158,7.0,14.0,95,0.03,,,0.08,30.000000,,2013-06-06 12:43:00,
2013-06-06 08:53:00,56.0,55.0,-100.00,SSE,158,7.0,14.0,95,0.03,,,0.08,30.000000,,2013-06-06 12:53:00,
2013-06-06 09:03:00,56.0,55.0,-100.00,SSE,158,7.0,14.0,95,0.03,,,0.08,30.000000,,2013-06-06 13:03:00,
2013-06-06 09:33:00,55.0,54.0,-100.00,SSE,153,9.0,15.0,98,0.06,,,0.14,69.000000,,2013-06-06 13:33:00,
2013-06-06 09:43:00,55.0,54.0,-100.00,SSE,153,9.0,15.0,98,0.06,,,0.14,69.000000,,2013-06-06 13:43:00,
2013-06-06 09:53:00,55.0,54.0,-100.00,SSE,153,9.0,15.0,98,0.06,,,0.14,69.000000,,2013-06-06 13:53:00,
2013-06-06 10:03:00,55.0,54.0,-100.00,SSE,153,9.0,15.0,98,0.06,,,0.14,69.000000,,2013-06-06 14:03:00,
2013-06-06 10:33:00,55.0,53.0,-100.00,SSE,161,7.0,14.0,94,0.00,,,0.14,125.000000,,2013-06-06 14:33:00,
2013-06-06 10:43:00,55.0,53.0,-100.00,SSE,161,7.0,14.0,94,0.00,,,0.14,125.000000,,2013-06-06 14:43:00,
2013-06-06 10:53:00,55.0,53.0,-100.00,SSE,161,7.0,14.0,94,0.00,,,0.14,125.000000,,2013-06-06 14:53:00,
2013-06-06 11:03:00,55.0,53.0,-100.00,SSE,161,7.0,14.0,94,0.00,,,0.14,125.000000,,2013-06-06 15:03:00,
2013-06-06 12:34:00,53.0,52.0,-100.00,SSE,160,9.0,16.0,97,-99.99,,,0.20,161.000000,,2013-06-06 16:34:00,
2013-06-06 12:44:00,53.0,52.0,-100.00,SSE,160,9.0,16.0,97,-99.99,,,0.20,161.000000,,2013-06-06 16:44:00,
2013-06-06 12:53:00,53.0,52.0,-100.00,SSE,160,9.0,16.0,97,-99.99,,,0.20,161.000000,,2013-06-06 16:53:00,
2013-06-06 13:03:00,53.0,52.0,-100.00,SSE,160,9.0,16.0,97,-99.99,,,0.20,161.000000,,2013-06-06 17:03:00,
2013-06-06 13:33:00,54.0,53.0,-100.00,SSE,163,9.0,16.0,98,0.08,,,0.28,137.000000,,2013-06-06 17:33:00,
2013-06-06 13:43:00,54.0,53.0,-100.00,SSE,163,9.0,16.0,98,0.08,,,0.28,137.000000,,2013-06-06 17:43:00,
2013-06-06 13:53:00,54.0,53.0,-100.00,SSE,163,9.0,16.0,98,0.08,,,0.28,137.000000,,2013-06-06 17:53:00,
2013-06-06 14:03:00,54.0,53.0,-100.00,SSE,163,9.0,16.0,98,0.08,,,0.28,137.000000,,2013-06-06 18:03:00,
2013-06-06 14:33:00,54.0,54.0,-100.00,SSE,161,10.0,16.0,100,0.13,,,0.41,73.000000,,2013-06-06 18:33:00,
2013-06-06 14:43:00,54.0,54.0,-100.00,SSE,161,10.0,16.0,100,0.13,,,0.41,73.000000,,2013-06-06 18:43:00,
2013-06-06 14:53:00,54.0,54.0,-100.00,SSE,161,10.0,16.0,100,0.13,,,0.41,73.000000,,2013-06-06 18:53:00,
2013-06-06 15:03:00,54.0,54.0,-100.00,SSE,161,10.0,16.0,100,0.13,,,0.41,73.000000,,2013-06-06 19:03:00,
2013-06-06 15:34:00,55.0,55.0,-100.00,South,171,10.0,19.0,100,0.33,,,0.74,65.000000,,2013-06-06 19:34:00,
2013-06-06 15:43:00,55.0,55.0,-100.00,South,171,10.0,19.0,100,0.33,,,0.74,65.000000,,2013-06-06 19:43:00,
2013-06-06 15:53:00,55.0,55.0,-100.00,South,171,10.0,19.0,100,0.33,,,0.74,65.000000,,2013-06-06 19:53:00,
2013-06-06 16:03:00,55.0,55.0,-100.00,South,171,10.0,19.0,100,0.33,,,0.74,65.000000,,2013-06-06 20:03:00,
2013-06-06 16:33:00,55.0,55.0,-100.00,SSE,168,8.0,16.0,100,0.23,,,0.97,39.000000,,2013-06-06 20:33:00,
2013-06-06 16:43:00,55.0,55.0,-100.00,SSE,168,8.0,16.0,100,0.23,,,0.97,39.000000,,2013-06-06 20:43:00,
2013-06-06 16:53:00,55.0,55.0,-100.00,SSE,168,8.0,16.0,100,0.23,,,0.97,39.000000,,2013-06-06 20:53:00,
2013-06-06 17:03:00,55.0,55.0,-100.00,SSE,168,8.0,16.0,100,0.23,,,0.97,39.000000,,2013-06-06 21:03:00,
2013-06-06 17:33:00,56.0,56.0,-100.00,South,171,9.0,17.0,100,0.00,,,0.97,20.000000,,2013-06-06 21:33:00,
2013-06-06 17:44:00,56.0,56.0,-100.00,South,171,9.0,17.0,100,0.00,,,0.97,20.000000,,2013-06-06 21:44:00,
2013-06-06 17:53:00,56.0,56.0,-100.00,South,171,9.0,17.0,100,0.00,,,0.97,20.000000,,2013-06-06 21:53:00,
2013-06-06 18:03:00,56.0,56.0,-100.00,South,171,9.0,17.0,100,0.00,,,0.97,20.000000,,2013-06-06 22:03:00,
2013-06-06 18:33:00,57.0,57.0,-100.00,South,183,10.0,16.0,100,0.00,,,0.97,57.000000,,2013-06-06 22:33:00,
2013-06-06 18:43:00,57.0,57.0,-100.00,South,183,10.0,16.0,100,0.00,,,0.97,57.000000,,2013-06-06 22:43:00,
2013-06-06 18:53:00,57.0,57.0,-100.00,South,183,10.0,16.0,100,0.00,,,0.97,57.000000,,2013-06-06 22:53:00,
2013-06-06 19:03:00,57.0,57.0,-100.00,South,183,10.0,16.0,100,0.00,,,0.97,57.000000,,2013-06-06 23:03:00,
2013-06-06 19:33:00,57.0,57.0,-100.00,South,178,6.0,17.0,99,0.06,,,1.03,18.000000,,2013-06-06 23:33:00,
2013-06-06 19:43:00,57.0,57.0,-100.00,South,178,6.0,17.0,99,0.06,,,1.03,18.000000,,2013-06-06 23:43:00,
2013-06-06 19:52:00,57.0,57.0,-100.00,South,178,6.0,17.0,99,0.06,,,1.03,18.000000,,2013-06-06 23:52:00,
2013-06-06 20:02:00,57.0,57.0,-100.00,South,178,6.0,17.0,99,0.06,,,1.03,18.000000,,2013-06-07 00:02:00,
2013-06-06 20:32:00,56.0,56.0,-100.00,South,176,7.0,12.0,100,0.19,,,1.22,5.000000,,2013-06-07 00:32:00,
2013-06-06 20:43:00,56.0,56.0,-100.00,South,176,7.0,12.0,100,0.19,,,1.22,5.000000,,2013-06-07 00:43:00,
2013-06-06 20:52:00,56.0,56.0,-100.00,South,176,7.0,12.0,100,0.19,,,1.22,5.000000,,2013-06-07 00:52:00,
2013-06-06 21:03:00,56.0,56.0,-100.00,South,176,7.0,12.0,100,0.19,,,1.22,5.000000,,2013-06-07 01:03:00,
2013-06-06 21:33:00,56.0,56.0,-100.00,SSE,167,7.0,13.0,100,0.09,,,1.31,2.000000,,2013-06-07 01:33:00,
2013-06-06 21:42:00,56.0,56.0,-100.00,SSE,167,7.0,13.0,100,0.09,,,1.31,2.000000,,2013-06-07 01:42:00,
2013-06-06 21:53:00,56.0,56.0,-100.00,SSE,167,7.0,13.0,100,0.09,,,1.31,2.000000,,2013-06-07 01:53:00,
2013-06-06 22:02:00,56.0,56.0,-100.00,SSE,167,7.0,13.0,100,0.09,,,1.31,2.000000,,2013-06-07 02:02:00,
2013-06-06 22:32:00,56.0,56.0,-100.00,SSE,156,7.0,13.0,100,0.01,,,1.32,0.000000,,2013-06-07 02:32:00,
2013-06-06 22:42:00,56.0,56.0,-100.00,SSE,156,7.0,13.0,100,0.01,,,1.32,0.000000,,2013-06-07 02:42:00,
2013-06-06 22:52:00,56.0,56.0,-100.00,SSE,156,7.0,13.0,100,0.01,,,1.32,0.000000,,2013-06-07 02:52:00,
2013-06-06 23:02:00,56.0,56.0,-100.00,SSE,156,7.0,13.0,100,0.01,,,1.32,0.000000,,2013-06-07 03:02:00,
2013-06-06 23:33:00,56.0,56.0,-100.00,SSE,147,5.0,11.0,100,0.03,,,1.35,0.000000,,2013-06-07 03:33:00,
2013-06-06 23:44:00,56.0,56.0,-100.00,SSE,147,5.0,11.0,100,0.03,,,1.35,0.000000,,2013-06-07 03:44:00,
2013-06-06 23:53:00,56.0,56.0,-100.00,SSE,147,5.0,11.0,100,0.03,,,1.35,0.000000,,2013-06-07 03:53:00,